Wetbulb
55.89 55.58 55.26 55.09 55.06 54.76 54.67 54.48 54.45 54.28 54.67 54.80 54.65 54.56 54.36 54.26 54.15 54.14 54.14 54.21 54.53 54.99 55.23 55.56 55.69 55.51 51.97 45.53 44.18 52.07 60.25 63.71 60.33 55.95 50.16 48.66 45.10 43.13 38.73 39.12 41.51 38.64 42.97 43.95 45.42 45.56 45.09
55.35 55.05 54.96 54.84 54.55 54.22 54.26 54.33 53.73 53.84 54.44 54.74 54.59 54.40 54.09 53.87 53.71 53.70 53.79 54.13 54.83 55.17 55.27 55.57 55.60 55.15 48.24 38.04 49.76 53.23 54.20 58.50 58.49 53.25 48.81 48.45 46.54 45.79 41.47 39.90 38.96 40.50 41.90 42.65 43.99 43.65 42.92
55.00 54.74 54.56 54.58 54.33 54.16 54.29 53.98 53.78 53.67 53.90 54.25 54.38 54.07 53.58 53.31 53.38 53.47 53.73 54.31 54.93 55.19 55.55 56.12 55.68 53.60 46.49 42.08 50.24 51.09 57.00 55.60 56.59 52.91 47.20 49.51 47.40 44.71 42.60 39.13 42.45 41.08 37.34 39.64 39.70 40.36 39.93
54.55 54.55 54.51 54.27 54.23 54.45 54.40 54.18 53.88 53.91 54.16 53.99 53.64 53.12 53.25 53.12 53.24 53.76 54.37 55.03 55.46 55.99 56.79 55.74 56.34 51.09 42.05 52.14 51.79 50.95 51.13 53.87 56.24 56.73 53.16 49.55 48.35 44.10 41.52 42.35 40.37 35.73 34.51 31.20 38.66 39.93 40.50
54.21 54.09 54.10 54.12 54.38 54.23 54.16 53.94 53.99 53.70 53.94 53.58 53.08 53.10 52.96 52.56 53.48 53.61 54.13 55.20 55.39 56.32 56.29 56.48 50.11 47.21 41.19 54.36 46.45 48.85 50.32 49.79 54.89 53.66 51.13 52.18 45.63 41.07 40.06 35.18 31.71 32.43 29.15 28.94 33.42 39.70 39.17
53.70 53.89 53.67 54.02 54.20 54.00 53.77 52.93 53.02 53.24 53.47 53.01 52.77 52.77 52.08 52.29 53.00 53.19 54.30 53.92 52.95 53.39 53.62 54.78 53.47 44.82 45.57 44.15 47.19 48.39 48.10 51.27 49.96 47.07 45.12 43.21 39.92 35.07 33.27 33.17 27.52 30.24 28.35 28.93 30.37 36.15 36.95
53.36 53.76 54.01 53.58 52.99 53.10 52.99 52.46 52.23 52.75 52.30 51.80 51.84 51.40 51.56 52.07 52.25 53.42 48.47 43.40 38.59 36.51 39.83 37.25 37.56 40.60 42.70 45.71 48.66 45.69 47.56 47.75 45.51 41.56 36.17 38.15 33.04 31.11 34.61 37.00 37.23 34.45 30.38 31.12 32.43 37.24 34.92
53.16 53.84 52.95 52.51 52.52 52.45 52.24 51.79 51.75 51.50 51.56 51.74 51.43 51.84 51.57 51.84 51.43 50.83 45.43 40.61 41.21 40.83 35.07 41.00 40.98 40.68 43.15 43.83 38.64 43.31 47.59 41.61 39.92 34.97 36.20 33.65 30.89 36.65 38.03 37.43 35.53 34.19 31.46 30.63 34.05 36.88 34.33
53.34 52.21 52.05 52.50 51.62 51.88 51.29 51.46 50.96 51.14 51.14 51.14 50.94 51.53 51.72 51.44 51.41 44.64 41.16 41.52 45.73 45.25 35.48 36.19 41.33 41.75 43.09 42.91 38.71 40.08 43.80 40.59 36.41 34.25 34.21 32.09 34.04 38.56 35.76 34.27 32.67 32.52 30.73 31.19 31.05 33.32 35.10
51.92 51.80 51.30 51.19 50.96 51.06 50.69 50.76 50.79 51.05 50.88 50.65 50.60 50.90 50.44 51.66 43.22 42.34 39.80 44.72 45.69 46.36 28.67 31.60 38.33 41.57 43.75 43.02 37.87 45.45 45.33 41.20 36.92 33.52 34.41 33.16 38.05 36.28 34.28 32.89 33.70 28.68 35.43 34.26 32.77 29.41 24.59
51.14 50.77 50.65 50.32 50.09 50.09 50.48 50.44 50.73 50.65 50.70 51.18 50.66 50.01 50.35 50.48 42.66 39.48 42.34 44.89 45.57 44.45 16.30 36.70 37.10 45.10 40.66 38.19 38.92 38.15 44.61 41.32 35.21 34.76 33.22 31.33 32.88 32.41 32.26 33.64 35.49 31.88 36.37 34.20 32.97 29.51 25.23
50.29 50.41 50.37 50.28 50.14 49.90 49.94 49.95 50.35 50.46 51.19 51.12 51.04 50.44 50.65 44.92 42.32 42.51 44.86 45.18 42.52 29.16 13.91 30.08 35.28 32.36 32.66 34.58 35.81 36.26 36.92 41.75 40.17 35.06 35.88 34.42 38.46 35.17 33.63 35.97 36.36 37.66 33.24 31.33 28.14 26.44 22.32
49.67 49.75 49.72 49.95 50.25 50.11 50.18 50.18 50.48 50.48 50.85 50.96 50.82 49.97 46.89 45.30 39.74 45.37 44.52 39.63 23.99 17.89 31.24 26.94 27.67 30.87 30.46 27.95 29.90 31.19 29.63 28.49 28.06 24.97 24.02 28.00 30.87 35.26 37.05 33.55 36.50 34.42 28.27 23.90 22.68 20.79 21.60
49.69 49.52 49.50 49.68 50.25 50.36 50.26 50.35 50.42 50.39 50.12 50.57 50.21 48.05 44.12 46.06 43.64 43.18 39.74 30.06 18.04 25.44 25.48 30.80 29.48 29.62 26.39 27.67 27.24 28.06 25.45 22.70 30.48 28.58 23.60 21.15 19.45 29.09 31.92 31.67 29.77 30.94 30.92 24.22 18.31 19.04 21.84
49.33 49.57 49.94 49.96 50.09 50.23 50.27 50.18 49.96 49.94 49.99 50.00 47.55 40.05 38.68 41.67 43.80 40.66 32.23 21.95 23.63 25.45 28.77 26.98 27.36 22.43 22.55 26.10 25.83 24.70 22.93 23.84 28.44 28.97 20.93 20.41 21.45 28.96 30.91 34.40 34.72 31.20 25.23 32.68 26.23 26.04 18.83
49.06 49.41 49.78 50.08 50.34 50.09 49.86 49.65 49.72 49.52 49.44 48.50 37.80 35.99 36.93 42.11 41.74 35.88 26.31 25.66 24.91 30.47 29.29 27.65 21.04 23.25 19.02 21.76 21.89 22.03 21.50 26.66 26.79 30.01 30.13 25.67 17.86 27.30 29.17 32.44 34.90 33.62 34.78 26.21 27.07 19.41 18.45
49.10 49.87 50.32 49.86 49.31 49.09 49.25 49.33 49.42 49.01 48.88 47.47 35.31 29.60 37.04 41.99 37.55 29.12 18.73 22.38 26.86 31.91 29.95 25.76 22.46 22.07 21.54 20.76 21.89 20.81 21.99 26.25 28.30 27.86 29.01 26.90 22.35 19.42 27.13 25.60 22.29 24.80 26.43 25.45 24.89 26.68 20.25
49.31 49.04 48.99 48.77 48.66 48.83 48.91 48.93 48.81 48.73 48.62 41.64 31.55 23.46 36.13 38.17 24.49 23.36 21.07 25.45 31.65 29.54 29.97 27.99 27.03 25.05 23.98 22.72 19.92 20.77 20.67 23.66 29.67 29.47 21.96 26.17 16.00 15.83 19.54 26.57 32.05 29.28 25.87 25.41 17.76 16.05 19.42
48.30 48.45 48.52 48.46 48.55 48.54 48.41 48.43 48.53 48.51 48.25 38.43 28.17 27.81 36.28 33.65 18.99 20.45 24.84 26.18 28.35 26.70 26.36 26.34 24.90 26.54 27.12 22.79 19.17 23.40 23.30 29.08 29.55 27.48 25.38 24.43 16.81 11.34 15.11 21.58 26.40 23.76 25.92 26.49 26.13 24.44 18.68
48.05 48.47 48.28 48.24 48.01 48.04 48.00 47.99 48.04 48.20 48.25 36.57 27.79 22.20 28.16 27.94 26.40 22.50 22.33 22.98 23.78 28.70 26.87 27.80 26.20 26.80 24.22 22.13 24.03 18.27 22.62 27.56 29.06 28.22 32.84 30.47 11.13 12.34 7.63 14.33 21.40 18.78 18.60 19.08 24.09 17.44 14.55
48.11 47.83 47.65 47.30 47.18 47.18 47.13 47.07 47.18 47.37 47.65 35.95 27.24 25.69 29.85 20.11 22.03 23.07 23.80 23.33 22.83 23.01 27.03 27.33 24.88 25.33 24.54 20.45 20.35 19.58 22.77 24.76 26.75 29.20 26.89 23.04 12.33 15.56 17.81 18.28 19.22 13.45 12.17 10.86 10.85 13.05 10.93
47.24 47.20 47.45 47.59 48.29 47.97 47.19 47.06 47.34 47.22 46.14 34.26 23.74 23.48 28.40 25.74 25.01 22.45 22.56 16.17 22.89 25.13 26.24 23.35 22.77 24.36 24.93 22.17 21.73 19.98 23.30 22.20 21.47 23.15 21.21 25.50 16.96 18.99 14.89 20.06 15.59 5.14 9.06 8.45 5.31 4.97 8.88
47.03 46.81 46.46 46.63 46.83 45.90 45.38 45.34 45.21 45.68 43.42 32.33 33.20 37.48 32.95 24.57 23.16 15.93 17.82 22.61 24.26 27.32 26.44 27.99 26.02 22.70 21.57 24.24 27.03 27.05 27.50 26.40 25.46 23.71 23.08 23.06 20.60 17.56 6.81 18.77 12.82 -0.32 2.64 4.36 2.59 3.08 4.65
46.65 46.28 46.26 46.20 46.24 45.29 44.76 44.96 45.18 45.07 44.51 41.31 38.01 36.74 30.03 21.51 21.33 23.03 25.38 25.92 24.98 27.26 24.72 26.55 25.97 17.68 25.18 28.50 26.93 23.91 17.07 19.86 20.86 25.32 27.48 22.84 20.82 20.56 8.11 10.25 1.89 2.85 6.86 5.85 0.90 1.57 3.39
45.96 45.82 46.12 46.06 45.61 44.99 44.65 44.29 44.34 44.92 44.52 40.40 37.83 37.29 32.13 22.21 23.01 24.65 24.45 24.66 25.26 24.48 23.37 25.55 27.86 28.88 27.35 24.81 21.12 11.02 13.34 15.36 22.24 22.32 14.81 13.34 14.84 17.60 12.12 0.52 1.59 5.19 0.51 -1.48 -2.55 -2.61 2.99
45.97 45.80 46.26 46.51 45.74 44.57 44.45 43.94 43.96 44.15 43.62 40.31 38.44 39.45 35.22 28.46 21.36 26.91 26.32 26.01 24.19 19.01 16.24 22.71 27.63 27.49 28.42 24.88 20.22 7.15 5.89 14.92 14.72 15.66 15.84 8.50 5.80 8.13 7.91 5.77 -5.29 -3.51 0.25 4.33 3.24 -9.16 3.26
45.86 45.56 45.39 45.11 44.96 44.27 44.17 44.00 43.83 43.88 43.63 40.49 35.41 40.60 36.53 29.62 25.49 27.66 24.54 23.63 26.75 19.90 13.83 16.87 19.08 18.89 21.78 11.21 14.14 13.44 11.79 11.40 -1.81 -2.26 -0.77 -3.74 -8.27 -9.89 -6.83 -9.93 -6.92 -1.16 1.55 5.14 -8.03 -9.59 2.49
44.36 44.07 43.92 43.79 43.67 43.47 43.30 43.17 43.01 43.14 43.14 40.15 34.73 39.58 35.52 30.80 22.09 23.18 23.56 19.20 19.05 16.92 14.03 16.04 15.74 15.12 12.91 9.32 8.63 10.76 7.91 7.87 0.43 -1.14 -3.28 -11.54 -15.86 -13.28 -9.02 -9.70 -10.71 1.23 0.99 -7.37 -2.41 2.21 2.77
42.67 42.56 42.44 42.08 41.62 41.52 41.46 41.53 41.98 42.26 42.50 40.00 33.21 34.92 34.96 28.67 22.72 26.43 25.43 24.23 23.37 23.17 21.00 14.06 16.23 18.76 19.45 16.10 12.26 13.76 4.18 4.71 1.89 -5.50 -0.09 -11.51 -8.89 -9.16 -8.93 -8.78 -0.91 2.08 0.66 4.34 4.85 2.25 2.75
MSLP
1021.90 1021.69 1021.41 1021.11 1020.71 1020.41 1019.97 1019.58 1019.17 1018.66 1018.09 1017.54 1017.13 1016.63 1016.07 1015.45 1014.75 1013.98 1013.20 1012.45 1011.75 1011.18 1010.70 1010.40 1010.28 1010.30 1010.52 1010.13 1007.06 1004.32 1004.00 1003.97 1004.58 1005.16 1005.95 1006.68 1007.16 1007.47 1007.74 1007.57 1007.71 1007.25 1006.50 1005.97 1005.64 1005.58 1005.25
1022.09 1021.90 1021.62 1021.29 1020.90 1020.55 1020.11 1019.67 1019.34 1018.81 1018.16 1017.59 1016.99 1016.44 1015.86 1015.21 1014.47 1013.63 1012.77 1011.87 1011.14 1010.59 1010.05 1009.77 1009.79 1009.97 1010.02 1008.81 1004.69 1004.15 1004.23 1004.39 1004.52 1005.02 1005.39 1006.01 1006.32 1006.43 1006.90 1007.03 1007.16 1006.24 1006.00 1005.53 1005.40 1005.07 1005.19
1022.26 1022.10 1021.76 1021.39 1021.06 1020.66 1020.19 1019.72 1019.27 1018.76 1018.21 1017.64 1017.02 1016.37 1015.71 1015.01 1014.19 1013.26 1012.17 1011.08 1010.28 1009.69 1009.19 1009.14 1009.29 1009.44 1009.15 1005.70 1004.44 1004.37 1004.45 1004.54 1004.59 1004.94 1005.54 1005.51 1005.61 1006.04 1006.33 1006.81 1006.14 1006.04 1006.00 1005.52 1005.03 1004.71 1004.58
1022.29 1022.11 1021.87 1021.46 1021.00 1020.51 1020.03 1019.59 1019.10 1018.58 1018.03 1017.46 1016.92 1016.28 1015.49 1014.74 1013.95 1013.03 1011.83 1010.34 1009.48 1008.74 1008.05 1008.14 1008.50 1009.02 1007.90 1005.31 1005.10 1004.94 1004.66 1004.70 1004.64 1004.90 1005.27 1005.38 1005.65 1006.07 1006.20 1006.00 1006.01 1006.16 1005.96 1005.39 1003.64 1004.11 1004.07
1022.37 1022.16 1021.85 1021.32 1020.86 1020.49 1020.10 1019.64 1019.13 1018.56 1018.01 1017.39 1016.82 1016.20 1015.47 1014.59 1013.63 1012.67 1011.38 1009.80 1008.84 1008.35 1008.24 1008.33 1008.83 1008.81 1006.60 1004.62 1004.53 1003.89 1004.21 1004.60 1004.73 1005.00 1005.19 1005.29 1005.54 1005.80 1006.13 1006.49 1006.91 1006.12 1005.05 1004.14 1004.00 1003.52 1003.70
1022.48 1022.16 1021.76 1021.36 1020.97 1020.57 1020.16 1019.64 1019.12 1018.61 1017.99 1017.44 1016.73 1016.12 1015.42 1014.44 1013.40 1012.19 1010.65 1008.86 1008.35 1008.36 1008.53 1008.74 1008.70 1009.33 1006.45 1005.26 1004.36 1003.82 1003.64 1004.03 1004.64 1004.87 1005.27 1005.38 1005.73 1005.93 1006.01 1006.56 1004.26 1004.61 1004.66 1003.96 1003.50 1003.31 1003.32
1022.55 1022.12 1021.81 1021.53 1021.15 1020.75 1020.28 1019.67 1019.11 1018.57 1018.04 1017.37 1016.72 1016.02 1015.21 1014.28 1013.37 1012.11 1010.51 1009.53 1009.80 1009.52 1009.74 1009.77 1009.66 1008.69 1007.40 1006.09 1004.88 1004.14 1003.73 1003.97 1004.35 1005.11 1005.50 1005.52 1005.76 1004.16 1004.25 1003.96 1003.72 1004.57 1004.48 1003.38 1003.04 1003.04 1003.18
1022.56 1022.20 1021.87 1021.64 1021.27 1020.88 1020.39 1019.75 1019.23 1018.67 1018.02 1017.29 1016.60 1015.85 1015.04 1014.22 1013.40 1012.62 1011.82 1012.42 1013.78 1013.96 1010.94 1009.21 1008.65 1008.74 1007.79 1007.37 1006.17 1004.86 1004.38 1004.59 1004.77 1005.12 1005.83 1006.17 1003.73 1003.72 1004.12 1004.12 1004.14 1004.26 1003.94 1002.20 1002.97 1003.24 1003.14
1022.56 1022.31 1021.95 1021.68 1021.36 1020.97 1020.40 1019.85 1019.27 1018.68 1018.02 1017.34 1016.63 1015.85 1014.84 1013.94 1013.16 1012.97 1013.32 1013.76 1013.71 1013.43 1012.38 1009.29 1008.07 1007.29 1006.70 1007.14 1006.52 1005.38 1005.05 1004.80 1005.03 1005.41 1005.66 1005.20 1003.75 1002.89 1004.02 1003.82 1003.86 1003.27 1002.76 1002.75 1002.53 1003.16 1002.79
1022.66 1022.40 1022.07 1021.76 1021.47 1021.09 1020.44 1019.80 1019.18 1018.56 1017.95 1017.30 1016.54 1015.72 1015.04 1013.79 1013.60 1013.83 1013.48 1013.25 1013.21 1013.13 1012.46 1009.03 1007.63 1007.09 1006.81 1006.51 1006.33 1005.26 1004.94 1005.27 1005.22 1005.22 1005.64 1005.08 1004.30 1003.86 1003.80 1003.18 1004.06 1002.76 1002.44 1002.71 1002.89 1003.41 1002.87
1022.78 1022.46 1022.20 1021.94 1021.48 1021.01 1020.51 1019.83 1019.14 1018.50 1017.90 1017.29 1016.54 1015.56 1014.81 1014.34 1014.56 1014.26 1013.82 1013.13 1012.81 1012.94 1012.25 1008.82 1008.39 1007.75 1007.80 1007.75 1006.80 1006.80 1005.87 1005.57 1005.38 1005.52 1005.65 1004.21 1003.90 1003.70 1003.48 1002.82 1003.46 1001.52 1002.59 1002.43 1002.69 1003.02 1003.37
1022.90 1022.63 1022.25 1021.94 1021.53 1021.10 1020.52 1019.86 1019.28 1018.59 1017.76 1017.07 1016.32 1015.60 1014.70 1014.55 1014.65 1013.96 1013.40 1012.92 1012.91 1013.19 1011.74 1010.36 1010.10 1009.92 1009.07 1008.63 1008.24 1007.86 1007.28 1006.71 1006.69 1006.49 1006.11 1004.99 1004.38 1004.11 1003.10 1002.58 1002.74 1002.24 1002.18 1002.31 1002.49 1002.90 1003.18
1022.91 1022.65 1022.30 1021.94 1021.51 1021.08 1020.60 1019.95 1019.34 1018.68 1017.96 1017.16 1016.25 1015.48 1014.96 1014.60 1014.79 1013.72 1013.37 1013.13 1013.84 1013.59 1012.94 1012.80 1012.23 1011.57 1011.09 1010.99 1010.34 1009.88 1009.34 1008.80 1009.08 1008.83 1007.89 1006.55 1004.86 1003.44 1003.18 1002.72 1002.26 1002.29 1002.72 1002.39 1002.42 1002.45 1001.25
1023.01 1022.65 1022.30 1021.89 1021.46 1021.12 1020.66 1020.01 1019.37 1018.71 1017.96 1017.23 1016.19 1015.55 1015.14 1014.69 1014.36 1013.76 1013.57 1013.91 1014.42 1015.14 1014.71 1014.35 1013.51 1012.64 1012.08 1012.14 1011.94 1011.42 1010.90 1010.56 1010.38 1010.36 1009.89 1008.70 1006.58 1005.30 1004.47 1004.51 1003.45 1002.38 1002.13 1001.87 1001.04 1001.37 1001.80
1022.94 1022.55 1022.23 1021.96 1021.60 1021.14 1020.66 1020.08 1019.49 1018.82 1018.07 1017.23 1016.26 1015.97 1015.66 1014.67 1014.12 1013.92 1014.49 1015.24 1016.06 1016.18 1016.00 1014.98 1014.07 1013.65 1013.31 1013.28 1013.14 1012.57 1012.32 1011.44 1011.16 1011.04 1011.11 1010.13 1008.36 1006.74 1005.45 1004.76 1004.32 1003.26 1002.07 1001.19 1001.43 1001.66 1002.58
1022.84 1022.56 1022.24 1021.94 1021.61 1021.13 1020.67 1020.17 1019.55 1018.86 1018.09 1017.19 1017.41 1017.15 1016.31 1015.24 1014.55 1014.55 1015.62 1016.78 1016.91 1016.64 1016.19 1015.58 1015.22 1014.61 1014.29 1014.05 1013.86 1013.77 1012.85 1011.46 1011.27 1011.19 1011.16 1010.77 1009.62 1007.74 1006.09 1005.12 1003.90 1004.01 1003.82 1002.68 1001.75 1001.80 1002.53
1022.80 1022.46 1022.23 1021.98 1021.67 1021.33 1020.95 1020.36 1019.72 1019.08 1018.17 1017.55 1017.83 1017.95 1016.57 1015.70 1015.29 1016.65 1018.04 1017.87 1017.34 1016.84 1016.48 1016.14 1015.82 1015.70 1015.25 1015.01 1014.58 1014.11 1013.04 1011.72 1011.24 1011.28 1011.31 1011.02 1010.52 1009.21 1007.66 1006.34 1005.78 1005.13 1004.74 1005.27 1004.72 1002.70 1003.13
1022.86 1022.66 1022.48 1022.20 1021.91 1021.51 1021.08 1020.67 1020.13 1019.30 1018.49 1018.20 1019.13 1018.92 1017.37 1016.61 1017.54 1018.86 1019.28 1018.75 1017.86 1017.06 1016.64 1016.18 1015.86 1015.57 1015.39 1015.43 1014.94 1014.21 1012.96 1011.95 1011.49 1011.67 1011.66 1011.32 1011.06 1010.26 1008.98 1007.22 1006.46 1006.67 1007.19 1007.67 1007.17 1006.50 1006.67
1023.02 1022.85 1022.64 1022.32 1022.07 1021.75 1021.21 1020.79 1020.33 1019.81 1019.31 1019.70 1020.27 1019.91 1018.06 1017.90 1019.57 1020.15 1019.82 1019.13 1018.33 1017.52 1016.90 1016.54 1016.53 1015.97 1015.91 1015.80 1015.55 1014.27 1013.20 1012.07 1011.92 1012.06 1011.91 1011.50 1011.44 1011.10 1009.47 1008.32 1007.19 1007.71 1008.42 1008.74 1008.63 1008.47 1009.18
1023.14 1022.87 1022.74 1022.52 1022.14 1021.82 1021.46 1020.98 1020.58 1020.03 1019.61 1019.93 1020.69 1020.92 1020.26 1020.27 1020.63 1020.96 1020.63 1019.47 1018.49 1017.74 1017.31 1017.08 1016.64 1016.16 1016.17 1015.66 1015.40 1014.59 1013.52 1012.46 1012.22 1012.11 1011.48 1011.52 1011.78 1011.92 1011.54 1010.46 1010.64 1010.84 1011.56 1011.38 1010.68 1011.38 1012.68
1023.27 1023.15 1022.95 1022.70 1022.30 1021.96 1021.64 1021.23 1020.75 1020.29 1019.77 1020.16 1021.25 1021.79 1021.66 1021.44 1021.32 1021.39 1021.21 1020.10 1019.28 1018.33 1017.49 1017.12 1016.77 1016.69 1016.67 1015.92 1015.22 1014.48 1013.78 1012.67 1011.83 1011.62 1011.59 1012.08 1012.05 1012.07 1011.34 1011.42 1012.50 1014.36 1014.74 1015.18 1014.93 1015.11 1015.91
1023.56 1023.37 1023.05 1022.68 1022.32 1022.15 1021.85 1021.53 1021.06 1020.51 1020.03 1020.69 1021.59 1021.85 1021.57 1021.43 1021.27 1021.18 1020.75 1020.30 1019.50 1018.88 1018.52 1017.53 1017.07 1016.56 1016.61 1016.31 1015.96 1014.63 1014.45 1013.29 1012.61 1012.03 1012.10 1012.50 1011.96 1011.94 1011.58 1012.23 1014.11 1017.26 1018.16 1018.54 1019.19 1019.57 1020.33
1023.67 1023.53 1023.15 1022.74 1022.50 1022.37 1022.14 1021.88 1021.48 1020.95 1020.56 1021.19 1021.49 1021.29 1021.51 1021.21 1021.21 1021.30 1020.58 1019.79 1019.29 1018.92 1018.18 1017.57 1017.09 1016.78 1016.15 1015.77 1015.64 1014.66 1013.55 1013.07 1013.04 1013.02 1012.28 1012.44 1012.27 1012.55 1012.44 1013.29 1015.61 1019.39 1022.40 1022.81 1023.77 1024.34 1024.65
1023.76 1023.58 1023.18 1022.88 1022.64 1022.47 1022.32 1021.99 1021.67 1021.35 1021.18 1021.44 1021.35 1021.35 1021.50 1021.05 1021.13 1020.74 1020.07 1019.49 1019.19 1018.99 1018.54 1017.51 1017.17 1017.19 1015.98 1015.51 1014.60 1013.28 1012.99 1013.01 1013.14 1013.17 1013.36 1013.21 1013.27 1013.40 1014.07 1015.11 1018.61 1023.94 1025.53 1025.80 1026.43 1027.48 1027.93
1024.00 1023.53 1023.10 1022.78 1022.65 1022.43 1022.41 1022.11 1021.74 1021.52 1021.41 1021.44 1021.16 1021.16 1020.99 1020.63 1020.53 1020.08 1019.68 1019.34 1018.94 1018.80 1018.71 1017.95 1017.22 1017.11 1016.55 1015.97 1015.55 1015.01 1014.11 1014.07 1014.40 1014.88 1015.39 1015.66 1015.54 1015.67 1016.74 1019.99 1023.63 1025.16 1027.77 1028.83 1028.93 1029.86 1030.11
1023.84 1023.55 1023.27 1022.99 1022.80 1022.56 1022.17 1021.88 1021.59 1021.33 1021.25 1021.14 1020.97 1020.56 1020.87 1020.47 1020.16 1019.94 1019.77 1019.21 1019.17 1019.45 1019.30 1018.59 1017.87 1017.46 1017.18 1016.94 1016.95 1017.21 1017.10 1016.82 1017.00 1016.97 1017.54 1018.53 1018.99 1019.28 1020.35 1022.78 1026.29 1028.81 1029.86 1030.27 1030.48 1031.58 1031.60
1023.92 1023.71 1023.42 1023.06 1022.78 1022.47 1022.17 1021.74 1021.42 1020.97 1020.84 1021.03 1020.89 1020.51 1020.53 1020.58 1022.07 1020.99 1021.30 1021.24 1020.56 1020.63 1020.64 1020.27 1019.92 1018.97 1018.49 1018.71 1018.80 1018.94 1019.31 1019.79 1021.53 1023.11 1023.77 1024.26 1024.97 1025.97 1026.04 1027.52 1029.74 1030.99 1030.77 1030.29 1031.70 1033.76 1032.71
1024.03 1023.84 1023.58 1023.24 1022.87 1022.47 1022.08 1021.66 1021.31 1020.81 1020.77 1020.93 1020.98 1020.91 1021.13 1021.29 1024.10 1023.96 1023.77 1023.75 1023.11 1022.87 1022.71 1021.79 1020.94 1020.70 1020.47 1020.47 1021.03 1021.33 1022.03 1023.47 1025.57 1028.36 1029.41 1030.80 1031.36 1031.01 1030.61 1031.03 1032.69 1032.41 1031.64 1032.62 1034.30 1033.91 1033.67
1024.10 1023.86 1023.60 1023.26 1022.92 1022.46 1022.08 1021.70 1021.30 1020.91 1020.90 1021.02 1021.50 1021.30 1021.56 1022.41 1025.44 1025.53 1025.36 1025.36 1025.15 1024.55 1023.92 1023.24 1023.31 1022.89 1022.33 1022.15 1022.64 1023.28 1025.00 1026.59 1028.39 1030.88 1032.27 1033.73 1034.80 1034.69 1034.86 1034.96 1034.96 1034.79 1034.67 1034.66 1034.52 1034.34 1034.04
Wind_Speed
13 14 14 15 16 16 16 17 18 18 19 20 21 22 23 25 26 27 27 28 27 25 24 21 16 11 4 5 15 7 12 8 12 16 16 10 7 8 9 8 8 7 16 8 15 17 17
12 13 14 14 15 16 16 18 18 20 20 21 22 24 25 27 29 29 30 30 27 25 23 19 14 6 4 10 6 9 5 5 7 11 11 11 10 9 7 6 10 6 16 20 17 18 9
13 13 13 15 15 16 17 18 19 20 21 22 23 25 27 28 29 31 33 32 29 26 24 18 11 7 10 20 4 7 2 4 4 9 7 8 6 10 7 5 7 5 13 14 10 6 8
12 13 14 15 16 16 18 19 20 21 21 22 23 25 27 28 30 31 32 33 29 28 16 5 8 9 11 6 7 10 4 4 5 6 3 3 3 4 4 5 6 3 4 8 7 13 8
13 14 14 16 17 18 19 19 20 21 21 23 24 24 26 29 29 30 30 30 28 13 5 9 6 5 11 7 3 7 7 5 4 3 3 3 3 7 3 4 5 6 11 11 5 8 7
13 14 15 17 17 18 19 20 21 22 23 24 25 25 27 29 30 31 29 28 10 5 2 5 3 3 5 5 3 3 4 8 4 4 2 6 4 4 4 8 24 20 14 5 8 7 8
13 14 15 17 18 19 19 21 21 22 23 24 25 26 27 27 29 28 18 6 10 6 6 6 9 9 13 8 7 4 2 5 5 4 8 4 6 19 25 27 22 17 9 21 4 9 7
14 15 15 16 17 18 19 20 21 22 23 24 25 25 28 29 30 14 8 7 6 7 14 17 15 10 12 4 6 9 4 6 6 10 5 4 25 16 12 16 18 20 22 25 13 6 5
13 15 15 16 16 18 19 20 22 22 23 24 26 25 27 28 23 5 2 8 6 8 7 10 5 4 2 6 4 6 3 1 3 5 9 16 11 11 15 17 19 22 26 19 24 1 9
13 13 15 16 17 17 19 20 22 23 23 25 26 27 26 30 5 6 2 9 5 4 4 6 2 6 9 5 4 5 4 5 4 8 10 14 18 22 14 18 14 25 16 20 17 6 9
13 13 14 15 16 17 19 20 22 24 24 23 26 28 25 14 4 4 7 8 6 2 5 6 5 5 14 5 10 18 7 6 11 8 4 8 5 4 14 23 14 20 11 17 15 11 3
12 13 14 15 16 17 18 19 21 23 24 26 26 26 21 4 2 5 9 8 2 1 7 10 5 16 15 10 7 13 11 9 5 8 13 19 12 6 4 7 8 14 7 4 2 4 9
11 12 14 15 16 17 18 20 21 23 24 26 27 24 7 3 7 11 6 3 4 2 11 10 12 18 7 13 9 11 10 7 6 9 10 15 7 5 3 15 17 9 1 5 8 8 14
11 12 14 14 15 16 18 19 21 23 24 24 26 14 7 1 7 6 4 4 6 5 4 10 12 10 4 14 6 11 10 4 6 3 4 8 10 14 19 5 7 16 15 11 14 10 10
11 13 13 15 15 16 17 19 21 21 23 24 16 5 4 6 12 3 5 7 3 4 9 10 9 4 4 12 3 7 5 2 2 3 3 5 6 25 18 12 5 8 8 17 21 14 5
11 11 12 13 15 15 16 18 19 21 22 21 2 4 5 12 9 6 6 4 0 1 9 4 3 3 7 9 3 5 5 6 2 1 5 4 9 8 15 8 5 5 4 6 11 12 13
10 12 13 13 14 14 16 18 19 21 24 17 5 4 4 13 5 7 4 3 4 4 7 4 4 7 6 6 5 4 7 8 3 3 4 5 1 11 11 5 16 10 2 6 7 6 7
11 12 12 13 14 14 15 16 18 21 23 8 3 3 5 6 6 3 2 6 6 5 4 5 5 3 5 6 5 5 7 5 6 4 5 5 4 5 13 19 7 10 7 3 0 6 3
11 11 12 13 13 14 15 16 17 18 16 2 2 3 4 5 4 3 5 5 3 6 6 4 6 3 3 5 6 5 6 3 5 4 4 3 3 4 9 6 5 7 4 0 7 1 2
9 11 12 13 13 14 15 16 18 19 17 4 3 4 5 5 1 1 4 4 4 5 6 6 7 4 7 7 6 9 11 7 7 13 18 8 2 7 7 12 7 7 11 16 3 3 4
11 11 12 13 13 14 15 17 18 19 18 4 3 1 2 5 3 3 2 3 6 6 3 5 4 5 13 6 12 5 8 15 8 9 4 1 7 4 10 10 3 9 11 16 14 10 3
10 10 10 12 13 16 17 19 18 18 13 5 2 3 3 5 5 3 2 4 3 5 4 7 5 15 11 9 12 20 14 13 12 5 1 2 9 4 14 10 14 15 15 12 16 14 12
10 11 11 13 13 16 15 15 15 16 8 3 2 1 1 4 3 3 4 4 7 9 7 7 12 14 9 11 9 19 19 19 17 16 18 5 3 3 6 3 12 10 15 13 16 19 7
11 11 12 12 10 12 14 14 13 15 12 1 2 2 2 6 2 5 8 12 12 9 7 11 7 3 7 16 16 10 4 6 4 9 5 5 3 3 4 4 3 7 9 14 18 15 14
10 11 12 9 9 11 14 12 14 13 15 2 2 3 3 5 4 9 9 6 7 6 6 7 7 5 13 6 6 8 6 6 4 8 13 10 3 3 3 5 4 4 10 7 7 8 12
11 10 13 13 11 10 12 13 11 10 11 3 5 3 3 5 5 6 7 7 5 2 5 4 7 8 5 2 3 3 3 2 5 11 15 10 12 4 4 3 2 5 16 8 3 2 11
12 12 12 12 12 14 15 14 16 15 10 5 4 5 3 4 11 10 7 10 7 3 1 4 8 8 5 4 3 3 4 3 5 6 11 9 9 6 6 5 3 11 14 5 3 3 9
12 13 14 14 15 15 16 16 16 15 10 6 5 5 4 3 8 13 10 10 6 5 4 6 6 5 5 6 4 4 4 5 6 5 5 5 5 5 4 3 2 18 6 6 4 3 5
12 13 14 14 15 16 16 15 15 14 11 8 3 5 4 6 3 6 9 12 6 7 4 4 2 4 4 4 2 2 5 6 6 3 7 5 2 2 3 2 0 4 7 5 4 4 7
Wind_Direction
29 27 22 16 12 7 1 359 358 354 351 349 347 344 341 337 332 328 324 319 314 312 308 304 302 300 314 237 253 289 300 151 158 156 179 177 173 174 186 198 227 243 248 252 251 251 260
30 24 18 14 10 4 0 357 355 350 349 346 345 342 340 337 333 329 324 318 313 308 303 295 287 253 195 258 245 268 226 146 158 165 183 163 205 198 213 211 188 223 230 251 253 260 251
24 18 16 12 9 360 355 353 350 348 346 344 342 339 338 335 331 328 324 318 314 311 302 288 262 195 226 246 284 357 40 189 170 185 178 201 194 165 187 280 241 240 273 277 242 230 229
19 14 9 5 360 354 350 347 345 343 340 341 342 339 335 333 330 327 324 317 315 312 308 242 201 181 250 256 259 277 253 276 176 196 243 144 222 196 187 285 342 268 259 246 213 199 222
12 7 5 4 1 356 353 348 345 342 342 341 340 338 335 333 330 329 324 311 314 321 60 128 125 190 262 296 190 239 187 187 188 183 221 250 169 201 151 169 314 219 250 232 260 198 200
8 6 6 2 358 355 353 349 345 344 346 346 340 341 337 334 331 331 322 313 300 322 58 177 352 276 281 331 303 282 185 171 173 144 148 193 202 217 142 180 228 225 233 237 217 212 217
7 5 7 4 356 355 353 348 346 347 347 345 341 337 337 336 334 333 335 3 14 351 28 315 298 285 304 320 314 287 228 122 124 143 193 198 197 214 208 217 237 267 253 251 241 212 223
7 7 7 1 1 355 349 348 347 347 345 343 339 338 337 334 335 354 11 65 48 265 294 291 260 254 267 264 285 299 141 171 166 208 140 235 235 230 224 225 232 239 253 253 260 242 258
7 5 3 360 359 353 351 348 349 347 345 343 340 339 336 335 333 8 46 73 298 321 282 299 230 228 329 141 262 271 196 227 236 222 207 221 233 215 216 229 226 235 237 248 250 230 252
8 3 1 359 359 352 354 350 348 346 345 342 340 337 339 336 43 326 47 332 320 299 317 279 60 4 356 291 265 250 219 204 233 229 214 254 258 263 259 238 213 247 227 247 252 180 242
4 1 358 359 355 356 356 353 349 346 344 342 340 338 339 351 270 344 275 309 301 165 347 13 38 35 321 4 286 360 330 313 254 245 160 236 306 273 256 253 212 254 205 238 233 226 251
2 4 360 358 1 0 358 352 348 345 342 341 340 338 338 10 333 248 306 308 75 96 252 5 44 343 348 359 15 346 5 5 322 311 271 278 280 282 239 293 239 261 257 220 122 165 224
4 1 2 359 355 355 351 347 344 343 342 340 337 336 356 342 322 324 325 31 31 98 353 11 337 328 329 358 348 3 358 6 29 344 2 312 272 248 241 279 278 240 239 246 225 226 243
5 1 357 357 359 355 352 347 346 343 341 340 332 341 326 241 318 325 16 53 66 3 7 314 324 308 16 16 333 345 346 333 70 67 296 352 320 23 335 290 284 283 237 224 251 237 244
4 5 4 358 359 356 354 351 347 346 343 340 339 342 343 310 336 8 56 52 59 350 330 317 319 318 315 341 311 357 314 290 125 34 44 310 283 315 313 336 325 334 246 241 251 250 215
9 6 4 1 4 1 356 354 350 349 346 347 26 355 301 326 343 34 58 88 308 351 323 292 318 300 317 328 334 352 294 263 34 269 191 244 283 301 304 289 273 253 337 287 213 222 228
10 12 19 19 11 5 360 356 356 354 352 352 43 28 285 334 37 42 72 340 310 325 345 304 300 298 298 324 286 262 256 290 226 258 247 281 264 297 308 349 305 301 26 352 318 315 250
24 13 13 15 10 7 5 2 0 359 358 38 43 27 322 1 46 29 16 310 300 294 317 286 304 254 271 314 284 261 241 214 320 353 309 241 211 269 283 292 56 42 46 206 26 313 275
27 21 16 15 10 8 8 3 1 2 12 353 25 285 329 58 58 341 298 286 265 320 309 322 290 306 357 282 305 265 282 290 337 3 272 296 281 313 316 287 15 3 329 28 268 230 321
25 22 18 13 12 12 10 6 3 3 357 91 57 3 328 34 30 30 323 280 329 292 276 325 272 298 332 300 218 281 284 301 327 290 286 292 232 185 224 259 319 339 7 334 303 220 69
29 23 17 12 10 10 8 5 2 358 356 87 45 1 146 313 318 311 240 284 327 329 276 303 300 330 322 293 311 249 306 310 298 276 15 103 249 193 247 259 64 28 48 34 61 11 56
26 18 11 7 12 18 14 8 3 2 4 71 91 51 314 272 273 245 293 256 284 284 274 302 268 318 307 277 270 293 300 296 276 305 35 233 265 236 279 256 100 63 17 56 34 14 63
18 9 6 4 18 13 9 6 5 3 31 53 288 300 205 262 278 65 239 222 302 305 260 229 302 312 301 290 298 279 268 272 264 279 286 257 231 224 265 183 144 36 359 75 68 35 15
13 4 360 358 5 11 8 11 13 13 21 331 256 263 246 270 212 222 269 276 277 274 269 283 299 159 277 315 297 286 317 282 250 268 312 283 247 223 265 15 110 117 43 71 81 46 26
8 4 2 360 5 5 10 6 3 11 7 329 275 280 227 262 244 279 258 237 289 270 259 274 303 311 315 313 328 343 343 10 44 58 29 16 314 307 62 51 125 117 28 352 8 42 18
5 7 10 19 15 357 351 349 351 349 351 334 291 214 268 284 257 270 272 235 274 304 336 294 334 324 324 307 312 328 292 321 356 339 21 27 27 81 355 113 160 32 336 320 310 52 9
2 359 352 347 340 338 342 339 337 340 340 355 280 311 277 262 23 344 17 354 4 24 286 329 338 333 15 358 344 354 332 343 31 22 341 356 359 48 4 84 78 341 321 311 99 297 355
5 357 352 348 345 343 342 340 335 337 357 20 290 49 356 40 24 22 27 20 345 5 4 307 351 356 344 25 34 328 21 44 81 32 10 45 344 15 333 70 25 344 21 62 300 328 357
1 354 352 352 351 348 346 341 339 340 18 50 334 352 340 66 95 55 38 34 5 324 305 324 264 344 311 349 355 12 31 17 12 59 9 33 30 346 44 91 34 351 52 21 17 4 357